COSMOS 1275 DEB, 12693

Orbit data source: Space-Track

COSMOS 1275 DEB, 12693 is space debris in LEO originally from a launch on Thu, 04 Jun 1981 UTC launched from the Plesetsk Missile And Space Complex (PKMTR). Debris objects in space refer to the collection of defunct objects orbiting the Earth. Examples of debris include non-operational satellites, rocket bodies, and fragments generated from explosions, collisions, or faulty payload assembly.

Loading next visibility...
Identifier
12693, 1981-053AM
Orbit
LEO
Last TLE update
12 hours ago
Origin
Manufacturer
Unknown
Mission
Spacecraft
Bus & Motor
Unknown
Mass
Unknown
Launch date (UTC)
1981-06-04 (44 years ago)
Launch vehicle
Unknown
Launch site
Plesetsk Missile And Space Complex (PKMTR)
Object type
Payload
Rocket body
Debris
Shape & HBR
Unknown
Radar Cross Section
Medium (>0.1 m² and <1 m²)

Expand to show TLE details & history

TLE from 12 hours ago
0 COSMOS 1275 DEB
1 12693U 81053AM  25199.50129426  .00001179  00000-0  53853-3 0  9998
2 12693  83.1439 195.7835 0045395 341.6369 144.1627 14.20239110940682
Epoch: 2025-07-18T12:01Z
TLE epoch observation values (Epoch: 2025-07-18T12:01:51.824Z)
Latitude
53.43823°
Longitude
-110.51489°
Altitude
859.877 km
Speed
7.414 km/s
True Right ascension
00h 26m 00s
True Declination
53° 16' 33"
Sunlit
Object was in daylight at epoch
Visualization orbit readout
Latitude
73.17217°
Longitude
101.68441°
Altitude
839.466 km
Speed
7.438 km/s
Apparent Right ascension
23h 06m 04s
Apparent Declination
40° 14' 55"
Sunlit
Object is in daylight
Visualization observer readout
Local Sidereal Time
12:25:03
Azimuth
15.089° NNE
Elevation
-7.839°
Doppler factor
1
Orbital elements
Apogee altitude
854.306 km
Perigee altitude
788.94 km
Semi-major axis
7,199.76 km
Eccentricity
0.00454
Inclination
83.1439°
RAAN
195.7835°
Arg. of periapsis
341.6369°
True anomaly
144.46587°
Mean anomaly
144.1627°
Eccentric anomaly
144.31442°
Mean motion
3.55276 °/min
Orbital period
101.33 mins
BSTAR
0.00053853
Loading maneuver chart data...
Loading SW <> Apogee altitude chart data...
Loading historical data...
Loading historical data...
Loading historical data...
Loading historical data...
Loading historical data...
Loading historical data...
Loading historical data...
|